Tracking 30995 objects as of 5-Jul-2025
HD Live streaming from Space Station
objects crossing your sky now

COSMOS 1579 FUEL CORE

Track COSMOS 1579 FUEL CORE now!
10-day predictions


NORAD ID: 15330
Int'l Code: 1984-069D
Perigee: 921.9 km
Apogee: 950.3 km
Inclination: 65.1 °
Period: 103.6 minutes
Semi major axis: 7307 km
RCS: 0.1745 m2 (medium)
Launch date: June 29, 1984
Source: Commonwealth of Independent States (former USSR) (CIS)
Launch site: TYURATAM MISSILE AND SPACE COMPLEX (TTMTR)

Note: This is SATELLITE DEBRIS
Your satellite tracking list
COSMOS 1856
Track 1 satellite(s)




NASA's NSSDC Master Catalog

Two Line Element Set (TLE):
1 15330U 84069D   25186.62044733 -.00000078  00000-0  96426-5 0  9998
2 15330  65.0562  12.3135 0019404  75.3270 346.2554 13.89910188 83812
Source of the keplerian elements: AFSPC